Location: Cluj-Napoca
(46.7712°N, 23.6236°E)
Time: 10:32:52
(UTC+02:00)

First-Move - Pass Details

Date: 01 December 2021
Orbit: 574 x 664 km, 97.6° (Epoch: 20 January)

Event Time Altitude Azimuth Distance (km) Brightness Sun altitude
Rises 06:30:57 0° 356° (N) 2,988 ? -13.0°
Reaches altitude 10° 06:34:02 10° 334° (NNW) 2,084 ? -12.5°
Enters shadow 06:34:59 13° 322° (NW) 1,906 ? -12.4°
